San Luis Obispo, CA

7:20 AM PDT on March 24, 2017 (GMT -0700)
San Luis Obispo County-McChesney

Weather History for KSBP - August, 2014

Change the Weather History Date:

Tuesday, August 19, 2014

  Actual Average Record
Temperature  
Mean Temperature 66 °F -  
Max Temperature 73 °F 79 °F 94 °F (1986)
Min Temperature 59 °F 53 °F 48 °F (1990)
Growing Degree Days 16 (Base 50)    
Moisture  
Dew Point 57 °F    
Average Humidity 80    
Maximum Humidity 93    
Minimum Humidity 57    
Precipitation  
Precipitation 0.00 in - - ()
Sea Level Pressure  
Sea Level Pressure 29.89 in    
Wind  
Wind Speed 5 mph (NW)    
Max Wind Speed 14 mph    
Max Gust Speed 21 mph    
Visibility 9 miles    
Events      
Averages and records for this station are not official NWS values.
T = Trace of Precipitation, MM = Missing Value Source: NWS Daily Summary

Daily Weather History Graph

Daily Weather History Graph

Search for Another Location

Airport or City:

Trip Planner

Search our weather history database for the weather conditions in past years. The results will help you decide how hot, cold, wet, or windy it might be!

Date:

Astronomy

Aug. 19, 2014 Rise Set
Actual Time 6:25 AM PDT 7:46 PM PDT
Civil Twilight 5:58 AM PDT 8:12 PM PDT
Nautical Twilight 5:26 AM PDT 8:44 PM PDT
Astronomical Twilight 4:53 AM PDT 9:17 PM PDT
Moon 1:25 AM PDT (8/19) 3:43 PM PDT (8/19)
Length of Visible Light 14h 14m
Length of Day
13h 20m
Waning Crescent, 28% of the Moon is Illuminated
Aug 19
Waning Crescent
Aug 25
New
Sep 2
First Quarter
Sep 8
Full
Sep 15
Last Quarter

Hourly Weather History & Observations

Time (PDT) Temp. Dew Point Humidity Pressure Visibility Wind Dir Wind Speed Gust Speed Precip Events Conditions
12:56 AM 60.1 °F 57.0 °F 90% 29.87 in 10.0 mi NW 4.6 mph - N/A   Overcast
1:56 AM 60.1 °F 57.0 °F 90% 29.86 in 10.0 mi West 6.9 mph - N/A   Overcast
2:56 AM 59.0 °F 57.0 °F 93% 29.87 in 10.0 mi WNW 5.8 mph - N/A   Overcast
3:56 AM 59.0 °F 57.0 °F 93% 29.88 in 9.0 mi North - - N/A   Overcast
4:56 AM 59.0 °F 57.0 °F 93% 29.88 in 10.0 mi NNW 3.5 mph - N/A   Overcast
5:56 AM 59.0 °F 55.9 °F 90% 29.88 in 6.0 mi Calm Calm - N/A   Overcast
6:56 AM 59.0 °F 57.0 °F 93% 29.89 in 5.0 mi Calm Calm - N/A   Overcast
7:56 AM 59.0 °F 57.0 °F 93% 29.90 in 3.0 mi Calm Calm - N/A   Overcast
8:24 AM 60.8 °F 57.2 °F 88% 29.91 in 6.0 mi Calm Calm - N/A   Overcast
8:56 AM 61.0 °F 55.9 °F 83% 29.91 in 6.0 mi Calm Calm - N/A   Overcast
9:56 AM 63.0 °F 55.9 °F 78% 29.91 in 10.0 mi ENE 3.5 mph - N/A   Overcast
10:56 AM 63.0 °F 57.0 °F 81% 29.93 in 10.0 mi NNW 6.9 mph - N/A   Overcast
11:56 AM 64.9 °F 57.0 °F 75% 29.93 in 10.0 mi NW 4.6 mph - N/A   Overcast
12:03 PM 64.4 °F 57.2 °F 77% 29.92 in 10.0 mi NNW 5.8 mph - N/A   Overcast
12:25 PM 64.4 °F 57.2 °F 77% 29.92 in 10.0 mi NW 5.8 mph - N/A   Overcast
12:56 PM 64.9 °F 57.0 °F 75% 29.92 in 10.0 mi WNW 4.6 mph - N/A   Overcast
2:03 PM 66.2 °F 57.2 °F 73% 29.90 in 10.0 mi West 5.8 mph - N/A   Overcast
2:56 PM 69.1 °F 57.0 °F 65% 29.88 in 10.0 mi Calm Calm - N/A   Overcast
3:56 PM 72.0 °F 55.9 °F 57% 29.86 in 10.0 mi NNW 10.4 mph - N/A   Scattered Clouds
4:56 PM 71.1 °F 55.9 °F 59% 29.85 in 10.0 mi WNW 13.8 mph 20.7 mph N/A   Scattered Clouds
5:56 PM 68.0 °F 55.9 °F 65% 29.85 in 10.0 mi NNW 12.7 mph - N/A   Scattered Clouds
6:51 PM 64.4 °F 55.4 °F 73% 29.86 in 10.0 mi NW 13.8 mph - N/A   Mostly Cloudy
6:56 PM 64.9 °F 55.9 °F 73% 29.86 in 10.0 mi NW 13.8 mph - N/A   Mostly Cloudy
7:56 PM 63.0 °F 57.0 °F 81% 29.87 in 10.0 mi NW 12.7 mph - N/A   Mostly Cloudy
8:56 PM 62.1 °F 57.0 °F 84% 29.89 in 10.0 mi NW 9.2 mph - N/A   Overcast
9:56 PM 62.1 °F 57.0 °F 84% 29.89 in 10.0 mi NW 5.8 mph - N/A   Overcast
10:56 PM 61.0 °F 55.9 °F 83% 29.88 in 10.0 mi NW 8.1 mph - N/A   Overcast
11:56 PM 61.0 °F 55.9 °F 83% 29.89 in 10.0 mi WNW 4.6 mph - N/A   Overcast